Find Starlink 11197

NORAD ID: 60186 Int'l Des: 2024-124 Owner: SPXS Country: US Constellation: starlink operational
LEOCIRCULAR

Live Position

Loading 3D Globe...

About Starlink 11197

Description loading...

Upcoming Passes

Passes for default location (London). Set your location on the main map for personalized predictions.

Altitude History

Loading altitude history...

Two-Line Element Set

1 60186U 24124D 26127.30457279 -.00001517 00000-0 -76769-5 0 9995
2 60186 53.1587 232.0519 0000781 101.0605 259.0500 15.69698528105740
Epoch: May 7, 2026 • Age: 11 hours

Current Status

Altitude 362.3 km
Velocity 7.69 km/s
Sub-Earth Point -8.27°S, 88.62°E
Launch Date Jul 3, 2024
Age 1.8 years
Type internet

Technical Details

Classification Payload
Mass 960.00 kg
Dry Mass 910.00 kg
Total Mass 960.00 kg
Length 0.30 m
Diameter 4.10 m
Span 29.00 m
Shape Box + pan
Manufacturer SPXS
Bus Type Starlink V2MD
Phase Status In Orbit
Owner/State SPXS/US

Most Searched